Year,Month,Day,Hour,Minute,Value (Times are PST for temperature in C)
2006,09,23,00,00,9.50
2006,09,23,00,01,9.50
2006,09,23,00,02,9.50
2006,09,23,00,03,9.50
2006,09,23,00,04,9.40
2006,09,23,00,05,9.40
2006,09,23,00,06,9.40
2006,09,23,00,07,9.40
2006,09,23,00,08,9.40
2006,09,23,00,09,9.40
2006,09,23,00,10,9.40
2006,09,23,00,11,9.40
2006,09,23,00,12,9.40
2006,09,23,00,13,9.30
2006,09,23,00,14,9.30
2006,09,23,00,15,9.30
2006,09,23,00,16,9.30
2006,09,23,00,17,9.30
2006,09,23,00,18,9.30
2006,09,23,00,19,9.20
2006,09,23,00,20,9.20
2006,09,23,00,21,9.20
2006,09,23,00,22,9.20
2006,09,23,00,23,9.20
2006,09,23,00,24,9.20
2006,09,23,00,25,9.20
2006,09,23,00,26,9.20
2006,09,23,00,27,9.20
2006,09,23,00,28,9.20
2006,09,23,00,29,9.20
2006,09,23,00,30,9.20
2006,09,23,00,31,9.20
2006,09,23,00,32,9.10
2006,09,23,00,33,9.10
2006,09,23,00,34,9.10
2006,09,23,00,35,9.10
2006,09,23,00,36,9.10
2006,09,23,00,37,9.10
2006,09,23,00,38,9.10
2006,09,23,00,39,9.10
2006,09,23,00,40,9.10
2006,09,23,00,41,9.10
2006,09,23,00,42,9.00
2006,09,23,00,43,9.00
2006,09,23,00,44,9.00
2006,09,23,00,45,9.00
2006,09,23,00,46,8.90
2006,09,23,00,47,8.90
2006,09,23,00,48,8.90
2006,09,23,00,49,8.90
2006,09,23,00,50,8.90
2006,09,23,00,51,8.90
2006,09,23,00,52,8.90
2006,09,23,00,53,8.90
2006,09,23,00,54,8.90
2006,09,23,00,55,9.00
2006,09,23,00,56,9.00
2006,09,23,00,57,9.10
2006,09,23,00,58,9.20
2006,09,23,00,59,9.30
2006,09,23,01,00,9.40
2006,09,23,01,01,9.50
2006,09,23,01,02,9.60
2006,09,23,01,03,9.70
2006,09,23,01,04,9.70
2006,09,23,01,05,9.80
2006,09,23,01,06,9.80
2006,09,23,01,07,9.90
2006,09,23,01,08,9.90
2006,09,23,01,09,10.00
2006,09,23,01,10,10.00
2006,09,23,01,11,10.00
2006,09,23,01,12,10.10
2006,09,23,01,13,10.10
2006,09,23,01,14,10.10
2006,09,23,01,15,10.10
2006,09,23,01,16,10.10
2006,09,23,01,17,10.10
2006,09,23,01,18,10.10
2006,09,23,01,19,10.10
2006,09,23,01,20,10.00
2006,09,23,01,21,10.00
2006,09,23,01,22,10.00
2006,09,23,01,23,9.90
2006,09,23,01,24,9.90
2006,09,23,01,25,9.90
2006,09,23,01,26,9.80
2006,09,23,01,27,9.70
2006,09,23,01,28,9.60
2006,09,23,01,29,9.50
2006,09,23,01,30,9.40
2006,09,23,01,31,9.30
2006,09,23,01,32,9.20
2006,09,23,01,33,9.10
2006,09,23,01,34,9.00
2006,09,23,01,35,8.90
2006,09,23,01,36,8.80
2006,09,23,01,37,8.80
2006,09,23,01,38,8.70
2006,09,23,01,39,8.70
2006,09,23,01,40,8.70
2006,09,23,01,41,8.70
2006,09,23,01,42,8.60
2006,09,23,01,43,8.60
2006,09,23,01,44,8.60
2006,09,23,01,45,8.60
2006,09,23,01,46,8.60
2006,09,23,01,47,8.50
2006,09,23,01,48,8.50
2006,09,23,01,49,8.50
2006,09,23,01,50,8.40
2006,09,23,01,51,8.40
2006,09,23,01,52,8.40
2006,09,23,01,53,8.40
2006,09,23,01,54,8.40
2006,09,23,01,55,8.30
2006,09,23,01,56,8.30
2006,09,23,01,57,8.30
2006,09,23,01,58,8.30
2006,09,23,01,59,8.30
2006,09,23,02,00,8.30
2006,09,23,02,01,8.40
2006,09,23,02,02,8.40
2006,09,23,02,03,8.40
2006,09,23,02,04,8.40
2006,09,23,02,05,8.40
2006,09,23,02,06,8.40
2006,09,23,02,07,8.40
2006,09,23,02,08,8.40
2006,09,23,02,09,8.50
2006,09,23,02,10,8.50
2006,09,23,02,11,8.50
2006,09,23,02,12,8.40
2006,09,23,02,13,8.40
2006,09,23,02,14,8.50
2006,09,23,02,15,8.50
2006,09,23,02,16,8.60
2006,09,23,02,17,8.60
2006,09,23,02,18,8.70
2006,09,23,02,19,8.70
2006,09,23,02,20,8.70
2006,09,23,02,21,8.70
2006,09,23,02,22,8.70
2006,09,23,02,23,8.70
2006,09,23,02,24,8.70
2006,09,23,02,25,8.70
2006,09,23,02,26,8.70
2006,09,23,02,27,8.70
2006,09,23,02,28,8.70
2006,09,23,02,29,8.70
2006,09,23,02,30,8.70
2006,09,23,02,31,8.70
2006,09,23,02,32,8.70
2006,09,23,02,33,8.60
2006,09,23,02,34,8.60
2006,09,23,02,35,8.50
2006,09,23,02,36,8.50
2006,09,23,02,37,8.50
2006,09,23,02,38,8.40
2006,09,23,02,39,8.40
2006,09,23,02,40,8.40
2006,09,23,02,41,8.40
2006,09,23,02,42,8.40
2006,09,23,02,43,8.40
2006,09,23,02,44,8.30
2006,09,23,02,45,8.30
2006,09,23,02,46,8.30
2006,09,23,02,47,8.20
2006,09,23,02,48,8.20
2006,09,23,02,49,8.20
2006,09,23,02,50,8.20
2006,09,23,02,51,8.20
2006,09,23,02,52,8.20
2006,09,23,02,53,8.20
2006,09,23,02,54,8.20
2006,09,23,02,55,8.20
2006,09,23,02,56,8.20
2006,09,23,02,57,8.30
2006,09,23,02,58,8.30
2006,09,23,02,59,8.30
2006,09,23,03,00,8.30
2006,09,23,03,01,8.30
2006,09,23,03,02,8.30
2006,09,23,03,03,8.30
2006,09,23,03,04,8.30
2006,09,23,03,05,8.30
2006,09,23,03,06,8.30
2006,09,23,03,07,8.30
2006,09,23,03,08,8.30
2006,09,23,03,09,8.30
2006,09,23,03,10,8.30
2006,09,23,03,11,8.30
2006,09,23,03,12,8.30
2006,09,23,03,13,8.30
2006,09,23,03,14,8.30
2006,09,23,03,15,8.20
2006,09,23,03,16,8.20
2006,09,23,03,17,8.20
2006,09,23,03,18,8.10
2006,09,23,03,19,8.10
2006,09,23,03,20,8.10
2006,09,23,03,21,8.20
2006,09,23,03,22,8.30
2006,09,23,03,23,8.50
2006,09,23,03,24,8.60
2006,09,23,03,25,8.80
2006,09,23,03,26,8.80
2006,09,23,03,27,8.90
2006,09,23,03,28,8.90
2006,09,23,03,29,8.80
2006,09,23,03,30,8.70
2006,09,23,03,31,8.60
2006,09,23,03,32,8.50
2006,09,23,03,33,8.50
2006,09,23,03,34,8.40
2006,09,23,03,35,8.30
2006,09,23,03,36,8.30
2006,09,23,03,37,8.20
2006,09,23,03,38,8.20
2006,09,23,03,39,8.10
2006,09,23,03,40,8.10
2006,09,23,03,41,8.00
2006,09,23,03,42,8.00
2006,09,23,03,43,8.00
2006,09,23,03,44,8.00
2006,09,23,03,45,7.90
2006,09,23,03,46,7.90
2006,09,23,03,47,7.90
2006,09,23,03,48,7.90
2006,09,23,03,49,7.80
2006,09,23,03,50,7.80
2006,09,23,03,51,7.80
2006,09,23,03,52,7.80
2006,09,23,03,53,7.80
2006,09,23,03,54,7.70
2006,09,23,03,55,7.70
2006,09,23,03,56,7.70
2006,09,23,03,57,7.70
2006,09,23,03,58,7.70
2006,09,23,03,59,7.70
2006,09,23,04,00,7.70
2006,09,23,04,01,7.70
2006,09,23,04,02,7.70
2006,09,23,04,03,7.70
2006,09,23,04,04,7.70
2006,09,23,04,05,7.70
2006,09,23,04,06,7.70
2006,09,23,04,07,7.70
2006,09,23,04,08,7.80
2006,09,23,04,09,7.80
2006,09,23,04,10,7.80
2006,09,23,04,11,7.80
2006,09,23,04,12,7.80
2006,09,23,04,13,7.80
2006,09,23,04,14,7.80
2006,09,23,04,15,7.80
2006,09,23,04,16,7.80
2006,09,23,04,17,7.80
2006,09,23,04,18,7.80
2006,09,23,04,19,7.80
2006,09,23,04,20,7.80
2006,09,23,04,21,7.80
2006,09,23,04,22,7.90
2006,09,23,04,23,7.90
2006,09,23,04,24,7.90
2006,09,23,04,25,8.00
2006,09,23,04,26,8.00
2006,09,23,04,27,8.10
2006,09,23,04,28,8.00
2006,09,23,04,29,8.00
2006,09,23,04,30,8.00
2006,09,23,04,31,7.90
2006,09,23,04,32,7.90
2006,09,23,04,33,7.90
2006,09,23,04,34,7.90
2006,09,23,04,35,7.90
2006,09,23,04,36,7.90
2006,09,23,04,37,7.90
2006,09,23,04,38,7.80
2006,09,23,04,39,7.80
2006,09,23,04,40,7.80
2006,09,23,04,41,7.80
2006,09,23,04,42,7.70
2006,09,23,04,43,7.70
2006,09,23,04,44,7.70
2006,09,23,04,45,7.60
2006,09,23,04,46,7.60
2006,09,23,04,47,7.60
2006,09,23,04,48,7.60
2006,09,23,04,49,7.60
2006,09,23,04,50,7.60
2006,09,23,04,51,7.60
2006,09,23,04,52,7.60
2006,09,23,04,53,7.60
2006,09,23,04,54,7.60
2006,09,23,04,55,7.60
2006,09,23,04,56,7.50
2006,09,23,04,57,7.50
2006,09,23,04,58,7.50
2006,09,23,04,59,7.40
2006,09,23,05,00,7.40
2006,09,23,05,01,7.40
2006,09,23,05,02,7.30
2006,09,23,05,03,7.30
2006,09,23,05,04,7.30
2006,09,23,05,05,7.30
2006,09,23,05,06,7.30
2006,09,23,05,07,7.30
2006,09,23,05,08,7.20
2006,09,23,05,09,7.20
2006,09,23,05,10,7.30
2006,09,23,05,11,7.30
2006,09,23,05,12,7.30
2006,09,23,05,13,7.20
2006,09,23,05,14,7.20
2006,09,23,05,15,7.20
2006,09,23,05,16,7.20
2006,09,23,05,17,7.20
2006,09,23,05,18,7.20
2006,09,23,05,19,7.20
2006,09,23,05,20,7.20
2006,09,23,05,21,7.20
2006,09,23,05,22,7.10
2006,09,23,05,23,7.10
2006,09,23,05,24,7.10
2006,09,23,05,25,7.10
2006,09,23,05,26,7.10
2006,09,23,05,27,7.10
2006,09,23,05,28,7.10
2006,09,23,05,29,7.20
2006,09,23,05,30,7.20
2006,09,23,05,31,7.20
2006,09,23,05,32,7.20
2006,09,23,05,33,7.20
2006,09,23,05,34,7.20
2006,09,23,05,35,7.20
2006,09,23,05,36,7.20
2006,09,23,05,37,7.20
2006,09,23,05,38,7.20
2006,09,23,05,39,7.20
2006,09,23,05,40,7.20
2006,09,23,05,41,7.20
2006,09,23,05,42,7.20
2006,09,23,05,43,7.30
2006,09,23,05,44,7.30
2006,09,23,05,45,7.40
2006,09,23,05,46,7.50
2006,09,23,05,47,7.50
2006,09,23,05,48,7.60
2006,09,23,05,49,7.60
2006,09,23,05,50,7.60
2006,09,23,05,51,7.60
2006,09,23,05,52,7.60
2006,09,23,05,53,7.50
2006,09,23,05,54,7.50
2006,09,23,05,55,7.50
2006,09,23,05,56,7.50
2006,09,23,05,57,7.40
2006,09,23,05,58,7.40
2006,09,23,05,59,7.40
2006,09,23,06,00,7.40
2006,09,23,06,01,7.40
2006,09,23,06,02,7.40
2006,09,23,06,03,7.40
2006,09,23,06,04,7.40
2006,09,23,06,05,7.40
2006,09,23,06,06,7.40
2006,09,23,06,07,7.40
2006,09,23,06,08,7.40
2006,09,23,06,09,7.40
2006,09,23,06,10,7.40
2006,09,23,06,11,7.30
2006,09,23,06,12,7.30
2006,09,23,06,13,7.30
2006,09,23,06,14,7.30
2006,09,23,06,15,7.30
2006,09,23,06,16,7.30
2006,09,23,06,17,7.20
2006,09,23,06,18,7.20
2006,09,23,06,19,7.20
2006,09,23,06,20,7.20
2006,09,23,06,21,7.20
2006,09,23,06,22,7.20
2006,09,23,06,23,7.20
2006,09,23,06,24,7.20
2006,09,23,06,25,7.20
2006,09,23,06,26,7.10
2006,09,23,06,27,7.10
2006,09,23,06,28,7.10
2006,09,23,06,29,7.10
2006,09,23,06,30,7.10
2006,09,23,06,31,7.10
2006,09,23,06,32,7.00
2006,09,23,06,33,7.00
2006,09,23,06,34,7.00
2006,09,23,06,35,6.90
2006,09,23,06,36,6.90
2006,09,23,06,37,6.90
2006,09,23,06,38,6.80
2006,09,23,06,39,6.80
2006,09,23,06,40,6.80
2006,09,23,06,41,6.80
2006,09,23,06,42,6.80
2006,09,23,06,43,6.70
2006,09,23,06,44,6.70
2006,09,23,06,45,6.70
2006,09,23,06,46,6.70
2006,09,23,06,47,6.70
2006,09,23,06,48,6.70
2006,09,23,06,49,6.70
2006,09,23,06,50,6.70
2006,09,23,06,51,6.70
2006,09,23,06,52,6.70
2006,09,23,06,53,6.70
2006,09,23,06,54,6.70
2006,09,23,06,55,6.70
2006,09,23,06,56,6.70
2006,09,23,06,57,6.70
2006,09,23,06,58,6.70
2006,09,23,06,59,6.70
2006,09,23,07,00,6.70
2006,09,23,07,01,6.70
2006,09,23,07,02,6.70
2006,09,23,07,03,6.80
2006,09,23,07,04,6.80
2006,09,23,07,05,6.90
2006,09,23,07,06,6.90
2006,09,23,07,07,6.90
2006,09,23,07,08,6.90
2006,09,23,07,09,7.00
2006,09,23,07,10,7.10
2006,09,23,07,11,7.20
2006,09,23,07,12,7.50
2006,09,23,07,13,7.70
2006,09,23,07,14,8.00
2006,09,23,07,15,8.00
2006,09,23,07,16,8.10
2006,09,23,07,17,8.10
2006,09,23,07,18,8.10
2006,09,23,07,19,8.10
2006,09,23,07,20,8.10
2006,09,23,07,21,8.10
2006,09,23,07,22,8.10
2006,09,23,07,23,8.10
2006,09,23,07,24,8.10
2006,09,23,07,25,7.90
2006,09,23,07,26,7.80
2006,09,23,07,27,7.60
2006,09,23,07,28,7.50
2006,09,23,07,29,7.30
2006,09,23,07,30,7.10
2006,09,23,07,31,7.00
2006,09,23,07,32,6.90
2006,09,23,07,33,6.80
2006,09,23,07,34,6.80
2006,09,23,07,35,6.70
2006,09,23,07,36,6.70
2006,09,23,07,37,6.70
2006,09,23,07,38,6.60
2006,09,23,07,39,6.60
2006,09,23,07,40,6.60
2006,09,23,07,41,6.60
2006,09,23,07,42,6.60
2006,09,23,07,43,6.60
2006,09,23,07,44,6.70
2006,09,23,07,45,6.70
2006,09,23,07,46,6.70
2006,09,23,07,47,6.80
2006,09,23,07,48,6.80
2006,09,23,07,49,6.90
2006,09,23,07,50,6.90
2006,09,23,07,51,7.00
2006,09,23,07,52,7.10
2006,09,23,07,53,7.20
2006,09,23,07,54,7.20
2006,09,23,07,55,7.40
2006,09,23,07,56,7.50
2006,09,23,07,57,7.60
2006,09,23,07,58,7.70
2006,09,23,07,59,7.70
2006,09,23,08,00,7.80
2006,09,23,08,01,7.90
2006,09,23,08,02,8.00
2006,09,23,08,03,8.20
2006,09,23,08,04,8.30
2006,09,23,08,05,8.50
2006,09,23,08,06,8.70
2006,09,23,08,07,8.80
2006,09,23,08,08,8.90
2006,09,23,08,09,9.00
2006,09,23,08,10,9.10
2006,09,23,08,11,9.20
2006,09,23,08,12,9.30
2006,09,23,08,13,9.30
2006,09,23,08,14,9.40
2006,09,23,08,15,9.50
2006,09,23,08,16,9.60
2006,09,23,08,17,9.70
2006,09,23,08,18,9.80
2006,09,23,08,19,10.00
2006,09,23,08,20,10.10
2006,09,23,08,21,10.20
2006,09,23,08,22,10.40
2006,09,23,08,23,10.50
2006,09,23,08,24,10.60
2006,09,23,08,25,10.70
2006,09,23,08,26,10.80
2006,09,23,08,27,10.80
2006,09,23,08,28,10.90
2006,09,23,08,29,10.90
2006,09,23,08,30,11.00
2006,09,23,08,31,11.10
2006,09,23,08,32,11.20
2006,09,23,08,33,11.30
2006,09,23,08,34,11.40
2006,09,23,08,35,11.40
2006,09,23,08,36,11.40
2006,09,23,08,37,11.50
2006,09,23,08,38,11.50
2006,09,23,08,39,11.60
2006,09,23,08,40,11.70
2006,09,23,08,41,11.80
2006,09,23,08,42,11.90
2006,09,23,08,43,11.90
2006,09,23,08,44,12.00
2006,09,23,08,45,12.10
2006,09,23,08,46,12.20
2006,09,23,08,47,12.30
2006,09,23,08,48,12.30
2006,09,23,08,49,12.40
2006,09,23,08,50,12.40
2006,09,23,08,51,12.60
2006,09,23,08,52,12.70
2006,09,23,08,53,12.80
2006,09,23,08,54,12.90
2006,09,23,08,55,13.00
2006,09,23,08,56,13.10
2006,09,23,08,57,13.20
2006,09,23,08,58,13.30
2006,09,23,08,59,13.40
2006,09,23,09,00,13.50
2006,09,23,09,01,13.50
2006,09,23,09,02,13.60
2006,09,23,09,03,13.50
2006,09,23,09,04,13.50
2006,09,23,09,05,13.40
2006,09,23,09,06,13.40
2006,09,23,09,07,13.30
2006,09,23,09,08,13.30
2006,09,23,09,09,13.30
2006,09,23,09,10,13.30
2006,09,23,09,11,13.20
2006,09,23,09,12,13.20
2006,09,23,09,13,13.20
2006,09,23,09,14,13.20
2006,09,23,09,15,13.30
2006,09,23,09,16,13.30
2006,09,23,09,17,13.30
2006,09,23,09,18,13.30
2006,09,23,09,19,13.40
2006,09,23,09,20,13.50
2006,09,23,09,21,13.50
2006,09,23,09,22,13.60
2006,09,23,09,23,13.60
2006,09,23,09,24,13.60
2006,09,23,09,25,13.70
2006,09,23,09,26,13.70
2006,09,23,09,27,13.80
2006,09,23,09,28,13.80
2006,09,23,09,29,13.80
2006,09,23,09,30,13.80
2006,09,23,09,31,13.90
2006,09,23,09,32,13.90
2006,09,23,09,33,13.90
2006,09,23,09,34,14.00
2006,09,23,09,35,14.00
2006,09,23,09,36,14.00
2006,09,23,09,37,14.10
2006,09,23,09,38,14.10
2006,09,23,09,39,14.20
2006,09,23,09,40,14.20
2006,09,23,09,41,14.30
2006,09,23,09,42,14.30
2006,09,23,09,43,14.30
2006,09,23,09,44,14.30
2006,09,23,09,45,14.40
2006,09,23,09,46,14.50
2006,09,23,09,47,14.50
2006,09,23,09,48,14.60
2006,09,23,09,49,14.60
2006,09,23,09,50,14.50
2006,09,23,09,51,14.50
2006,09,23,09,52,14.40
2006,09,23,09,53,14.40
2006,09,23,09,54,14.40
2006,09,23,09,55,14.40
2006,09,23,09,56,14.40
2006,09,23,09,57,14.40
2006,09,23,09,58,14.40
2006,09,23,09,59,14.40
2006,09,23,10,00,14.50
2006,09,23,10,01,14.50
2006,09,23,10,02,14.50
2006,09,23,10,03,14.50
2006,09,23,10,04,14.50
2006,09,23,10,05,14.60
2006,09,23,10,06,14.60
2006,09,23,10,07,14.60
2006,09,23,10,08,14.60
2006,09,23,10,09,14.60
2006,09,23,10,10,14.60
2006,09,23,10,11,14.60
2006,09,23,10,12,14.60
2006,09,23,10,13,14.60
2006,09,23,10,14,14.50
2006,09,23,10,15,14.50
2006,09,23,10,16,14.40
2006,09,23,10,17,14.40
2006,09,23,10,18,14.40
2006,09,23,10,19,14.30
2006,09,23,10,20,14.30
2006,09,23,10,21,14.30
2006,09,23,10,22,14.40
2006,09,23,10,23,14.40
2006,09,23,10,24,14.30
2006,09,23,10,25,14.40
2006,09,23,10,26,14.40
2006,09,23,10,27,14.50
2006,09,23,10,28,14.50
2006,09,23,10,29,14.60
2006,09,23,10,30,14.50
2006,09,23,10,31,14.50
2006,09,23,10,32,14.50
2006,09,23,10,33,14.40
2006,09,23,10,34,14.40
2006,09,23,10,35,14.30
2006,09,23,10,36,14.30
2006,09,23,10,37,14.20
2006,09,23,10,38,14.20
2006,09,23,10,39,14.20
2006,09,23,10,40,14.20
2006,09,23,10,41,14.20
2006,09,23,10,42,14.20
2006,09,23,10,43,14.30
2006,09,23,10,44,14.30
2006,09,23,10,45,14.40
2006,09,23,10,46,14.50
2006,09,23,10,47,14.60
2006,09,23,10,48,14.60
2006,09,23,10,49,14.70
2006,09,23,10,50,14.80
2006,09,23,10,51,14.80
2006,09,23,10,52,14.80
2006,09,23,10,53,14.80
2006,09,23,10,54,14.70
2006,09,23,10,55,14.80
2006,09,23,10,56,14.90
2006,09,23,10,57,15.00
2006,09,23,10,58,15.00
2006,09,23,10,59,15.00
2006,09,23,11,00,15.00
2006,09,23,11,01,15.10
2006,09,23,11,02,15.10
2006,09,23,11,03,15.10
2006,09,23,11,04,15.00
2006,09,23,11,05,15.00
2006,09,23,11,06,15.00
2006,09,23,11,07,15.00
2006,09,23,11,08,15.00
2006,09,23,11,09,15.00
2006,09,23,11,10,15.00
2006,09,23,11,11,15.00
2006,09,23,11,12,15.00
2006,09,23,11,13,15.00
2006,09,23,11,14,15.00
2006,09,23,11,15,15.00
2006,09,23,11,16,15.00
2006,09,23,11,17,15.00
2006,09,23,11,18,15.00
2006,09,23,11,19,15.20
2006,09,23,11,20,15.20
2006,09,23,11,21,15.20
2006,09,23,11,22,15.10
2006,09,23,11,23,15.10
2006,09,23,11,24,15.10
2006,09,23,11,25,15.10
2006,09,23,11,26,15.20
2006,09,23,11,27,15.20
2006,09,23,11,28,15.20
2006,09,23,11,29,15.20
2006,09,23,11,30,15.30
2006,09,23,11,31,15.40
2006,09,23,11,32,15.40
2006,09,23,11,33,15.30
2006,09,23,11,34,15.40
2006,09,23,11,35,15.30
2006,09,23,11,36,15.30
2006,09,23,11,37,15.30
2006,09,23,11,38,15.30
2006,09,23,11,39,15.30
2006,09,23,11,40,15.30
2006,09,23,11,41,15.30
2006,09,23,11,42,15.30
2006,09,23,11,43,15.30
2006,09,23,11,44,15.40
2006,09,23,11,45,15.50
2006,09,23,11,46,15.40
2006,09,23,11,47,15.40
2006,09,23,11,48,15.50
2006,09,23,11,49,15.60
2006,09,23,11,50,15.60
2006,09,23,11,51,15.70
2006,09,23,11,52,15.70
2006,09,23,11,53,15.70
2006,09,23,11,54,15.70
2006,09,23,11,55,15.80
2006,09,23,11,56,15.80
2006,09,23,11,57,15.90
2006,09,23,11,58,15.90
2006,09,23,11,59,15.80
2006,09,23,12,00,15.70
2006,09,23,12,01,15.70
2006,09,23,12,02,15.70
2006,09,23,12,03,15.70
2006,09,23,12,04,15.70
2006,09,23,12,05,15.70
2006,09,23,12,06,15.70
2006,09,23,12,07,15.70
2006,09,23,12,08,15.70
2006,09,23,12,09,15.80
2006,09,23,12,10,15.90
2006,09,23,12,11,16.00
2006,09,23,12,12,16.00
2006,09,23,12,13,16.00
2006,09,23,12,14,16.00
2006,09,23,12,15,16.10
2006,09,23,12,16,16.10
2006,09,23,12,17,16.10
2006,09,23,12,18,16.10
2006,09,23,12,19,16.10
2006,09,23,12,20,16.20
2006,09,23,12,21,16.30
2006,09,23,12,22,16.30
2006,09,23,12,23,16.40
2006,09,23,12,24,16.40
2006,09,23,12,25,16.40
2006,09,23,12,26,16.40
2006,09,23,12,27,16.30
2006,09,23,12,28,16.20
2006,09,23,12,29,16.20
2006,09,23,12,30,16.40
2006,09,23,12,31,16.50
2006,09,23,12,32,16.50
2006,09,23,12,33,16.60
2006,09,23,12,34,16.50
2006,09,23,12,35,16.40
2006,09,23,12,36,16.20
2006,09,23,12,37,16.20
2006,09,23,12,38,16.20
2006,09,23,12,39,16.20
2006,09,23,12,40,16.20
2006,09,23,12,41,16.20
2006,09,23,12,42,16.20
2006,09,23,12,43,16.20
2006,09,23,12,44,16.30
2006,09,23,12,45,16.40
2006,09,23,12,46,16.40
2006,09,23,12,47,16.40
2006,09,23,12,48,16.50
2006,09,23,12,49,16.60
2006,09,23,12,50,16.70
2006,09,23,12,51,16.70
2006,09,23,12,52,16.70
2006,09,23,12,53,16.70
2006,09,23,12,54,16.60
2006,09,23,12,55,16.60
2006,09,23,12,56,16.60
2006,09,23,12,57,16.60
2006,09,23,12,58,16.50
2006,09,23,12,59,16.50
2006,09,23,13,00,16.40
2006,09,23,13,01,16.40
2006,09,23,13,02,16.40
2006,09,23,13,03,16.40
2006,09,23,13,04,16.40
2006,09,23,13,05,16.50
2006,09,23,13,06,16.40
2006,09,23,13,07,16.50
2006,09,23,13,08,16.60
2006,09,23,13,09,16.60
2006,09,23,13,10,16.70
2006,09,23,13,11,16.70
2006,09,23,13,12,16.80
2006,09,23,13,13,16.70
2006,09,23,13,14,16.60
2006,09,23,13,15,16.60
2006,09,23,13,16,16.70
2006,09,23,13,17,16.80
2006,09,23,13,18,16.90
2006,09,23,13,19,16.90
2006,09,23,13,20,16.80
2006,09,23,13,21,16.80
2006,09,23,13,22,16.80
2006,09,23,13,23,16.70
2006,09,23,13,24,16.70
2006,09,23,13,25,16.60
2006,09,23,13,26,16.50
2006,09,23,13,27,16.50
2006,09,23,13,28,16.50
2006,09,23,13,29,16.50
2006,09,23,13,30,16.50
2006,09,23,13,31,16.50
2006,09,23,13,32,16.60
2006,09,23,13,33,16.80
2006,09,23,13,34,16.80
2006,09,23,13,35,16.80
2006,09,23,13,36,16.80
2006,09,23,13,37,16.80
2006,09,23,13,38,16.80
2006,09,23,13,39,16.70
2006,09,23,13,40,16.70
2006,09,23,13,41,16.80
2006,09,23,13,42,16.90
2006,09,23,13,43,16.90
2006,09,23,13,44,16.90
2006,09,23,13,45,16.90
2006,09,23,13,46,17.00
2006,09,23,13,47,17.10
2006,09,23,13,48,17.20
2006,09,23,13,49,17.30
2006,09,23,13,50,17.30
2006,09,23,13,51,17.30
2006,09,23,13,52,17.40
2006,09,23,13,53,17.30
2006,09,23,13,54,17.20
2006,09,23,13,55,17.20
2006,09,23,13,56,17.20
2006,09,23,13,57,17.30
2006,09,23,13,58,17.20
2006,09,23,13,59,17.20
2006,09,23,14,00,17.10
2006,09,23,14,01,17.10
2006,09,23,14,02,17.10
2006,09,23,14,03,17.10
2006,09,23,14,04,17.10
2006,09,23,14,05,17.10
2006,09,23,14,06,17.20
2006,09,23,14,07,17.20
2006,09,23,14,08,17.30
2006,09,23,14,09,17.30
2006,09,23,14,10,17.40
2006,09,23,14,11,17.40
2006,09,23,14,12,17.40
2006,09,23,14,13,17.40
2006,09,23,14,14,17.40
2006,09,23,14,15,17.30
2006,09,23,14,16,17.40
2006,09,23,14,17,17.50
2006,09,23,14,18,17.50
2006,09,23,14,19,17.40
2006,09,23,14,20,17.40
2006,09,23,14,21,17.40
2006,09,23,14,22,17.40
2006,09,23,14,23,17.40
2006,09,23,14,24,17.40
2006,09,23,14,25,17.30
2006,09,23,14,26,17.30
2006,09,23,14,27,17.30
2006,09,23,14,28,17.30
2006,09,23,14,29,17.40
2006,09,23,14,30,17.50
2006,09,23,14,31,17.50
2006,09,23,14,32,17.60
2006,09,23,14,33,17.60
2006,09,23,14,34,17.60
2006,09,23,14,35,17.70
2006,09,23,14,36,17.70
2006,09,23,14,37,17.80
2006,09,23,14,38,17.90
2006,09,23,14,39,18.00
2006,09,23,14,40,18.10
2006,09,23,14,41,18.10
2006,09,23,14,42,18.00
2006,09,23,14,43,17.90
2006,09,23,14,44,17.90
2006,09,23,14,45,17.90
2006,09,23,14,46,17.80
2006,09,23,14,47,17.80
2006,09,23,14,48,17.80
2006,09,23,14,49,17.80
2006,09,23,14,50,17.80
2006,09,23,14,51,17.90
2006,09,23,14,52,17.90
2006,09,23,14,53,17.90
2006,09,23,14,54,18.00
2006,09,23,14,55,18.10
2006,09,23,14,56,18.00
2006,09,23,14,57,17.90
2006,09,23,14,58,17.80
2006,09,23,14,59,17.80
2006,09,23,15,00,17.80
2006,09,23,15,01,18.00
2006,09,23,15,02,18.00
2006,09,23,15,03,18.10
2006,09,23,15,04,18.10
2006,09,23,15,05,18.20
2006,09,23,15,06,18.30
2006,09,23,15,07,18.30
2006,09,23,15,08,18.20
2006,09,23,15,09,18.20
2006,09,23,15,10,18.10
2006,09,23,15,11,18.00
2006,09,23,15,12,18.00
2006,09,23,15,13,18.00
2006,09,23,15,14,18.10
2006,09,23,15,15,18.10
2006,09,23,15,16,18.00
2006,09,23,15,17,17.90
2006,09,23,15,18,17.90
2006,09,23,15,19,17.90
2006,09,23,15,20,17.90
2006,09,23,15,21,17.80
2006,09,23,15,22,17.70
2006,09,23,15,23,17.70
2006,09,23,15,24,17.80
2006,09,23,15,25,17.80
2006,09,23,15,26,17.90
2006,09,23,15,27,17.90
2006,09,23,15,28,17.80
2006,09,23,15,29,17.80
2006,09,23,15,30,17.90
2006,09,23,15,31,17.90
2006,09,23,15,32,18.00
2006,09,23,15,33,18.10
2006,09,23,15,34,18.10
2006,09,23,15,35,18.00
2006,09,23,15,36,17.90
2006,09,23,15,37,17.90
2006,09,23,15,38,17.90
2006,09,23,15,39,17.90
2006,09,23,15,40,17.90
2006,09,23,15,41,18.10
2006,09,23,15,42,18.10
2006,09,23,15,43,18.20
2006,09,23,15,44,18.30
2006,09,23,15,45,18.30
2006,09,23,15,46,18.30
2006,09,23,15,47,18.30
2006,09,23,15,48,18.30
2006,09,23,15,49,18.40
2006,09,23,15,50,18.30
2006,09,23,15,51,18.40
2006,09,23,15,52,18.50
2006,09,23,15,53,18.60
2006,09,23,15,54,18.80
2006,09,23,15,55,18.80
2006,09,23,15,56,18.80
2006,09,23,15,57,18.80
2006,09,23,15,58,18.80
2006,09,23,15,59,18.80
2006,09,23,16,00,18.70
2006,09,23,16,01,18.70
2006,09,23,16,02,18.80
2006,09,23,16,03,18.80
2006,09,23,16,04,18.80
2006,09,23,16,05,18.80
2006,09,23,16,06,18.80
2006,09,23,16,07,18.90
2006,09,23,16,08,19.00
2006,09,23,16,09,19.00
2006,09,23,16,10,19.10
2006,09,23,16,11,19.20
2006,09,23,16,12,19.20
2006,09,23,16,13,19.20
2006,09,23,16,14,19.20
2006,09,23,16,15,19.20
2006,09,23,16,16,19.20
2006,09,23,16,17,19.30
2006,09,23,16,18,19.30
2006,09,23,16,19,19.40
2006,09,23,16,20,19.30
2006,09,23,16,21,19.30
2006,09,23,16,22,19.30
2006,09,23,16,23,19.30
2006,09,23,16,24,19.40
2006,09,23,16,25,19.30
2006,09,23,16,26,19.40
2006,09,23,16,27,19.30
2006,09,23,16,28,19.30
2006,09,23,16,29,19.20
2006,09,23,16,30,19.10
2006,09,23,16,31,19.00
2006,09,23,16,32,18.90
2006,09,23,16,33,19.00
2006,09,23,16,34,18.90
2006,09,23,16,35,18.90
2006,09,23,16,36,18.90
2006,09,23,16,37,18.90
2006,09,23,16,38,18.90
2006,09,23,16,39,18.90
2006,09,23,16,40,19.00
2006,09,23,16,41,19.00
2006,09,23,16,42,19.10
2006,09,23,16,43,19.10
2006,09,23,16,44,19.00
2006,09,23,16,45,18.90
2006,09,23,16,46,18.90
2006,09,23,16,47,18.90
2006,09,23,16,48,18.80
2006,09,23,16,49,18.80
2006,09,23,16,50,18.80
2006,09,23,16,51,18.80
2006,09,23,16,52,18.70
2006,09,23,16,53,18.70
2006,09,23,16,54,18.70
2006,09,23,16,55,18.70
2006,09,23,16,56,18.70
2006,09,23,16,57,18.70
2006,09,23,16,58,18.80
2006,09,23,16,59,18.90
2006,09,23,17,00,18.90
2006,09,23,17,01,18.90
2006,09,23,17,02,18.90
2006,09,23,17,03,18.80
2006,09,23,17,04,18.80
2006,09,23,17,05,18.80
2006,09,23,17,06,18.70
2006,09,23,17,07,18.70
2006,09,23,17,08,18.70
2006,09,23,17,09,18.70
2006,09,23,17,10,18.70
2006,09,23,17,11,18.70
2006,09,23,17,12,18.70
2006,09,23,17,13,18.60
2006,09,23,17,14,18.60
2006,09,23,17,15,18.70
2006,09,23,17,16,18.70
2006,09,23,17,17,18.70
2006,09,23,17,18,18.80
2006,09,23,17,19,18.80
2006,09,23,17,20,18.80
2006,09,23,17,21,18.80
2006,09,23,17,22,18.80
2006,09,23,17,23,18.70
2006,09,23,17,24,18.60
2006,09,23,17,25,18.60
2006,09,23,17,26,18.60
2006,09,23,17,27,18.60
2006,09,23,17,28,18.60
2006,09,23,17,29,18.70
2006,09,23,17,30,18.60
2006,09,23,17,31,18.60
2006,09,23,17,32,18.60
2006,09,23,17,33,18.60
2006,09,23,17,34,18.50
2006,09,23,17,35,18.50
2006,09,23,17,36,18.50
2006,09,23,17,37,18.60
2006,09,23,17,38,18.60
2006,09,23,17,39,18.60
2006,09,23,17,40,18.60